Find Kosmos-480

NORAD ID: 5905 Int'l Des: 1972-019 Owner: OKB10 Country: SU operational
LEOCIRCULARPOLAR

当前视图

正在加载3D地球...

About Kosmos-480

Kosmos-480 (NORAD 5905) is a satellite by OKB10 of SU. It operates in LEO, CIRCULAR, POLAR orbit

即将过境

Passes for default location (London). Set your location on the main map for personalized predictions.

高度历史

Loading altitude history...

两行轨道根数

1 5905U 72019A 26195.14993161 .00000025 00000-0 31004-4 0 9994
2 5905 82.9749 276.1131 0017796 332.4694 47.4982 13.19938431615662
Epoch: Jul 14, 2026 • Age: 11 hours

当前状态

高度 1207.0 km
远地点 / 近地点 N/A
速度 7.25 km/s
星下点 68.85°N, 79.7°W
类型 other

Most Searched